START_TIME,STEP,MOV.,M29,t_acc.,H22,t_acc.,H26,t_acc.,H30,t_acc.
1979-07-16 00:00:32.100 ,0,0,0.,24.0,0.,24.0,0.,24.0,0.,24.0
1979-07-16 00:00:56.100 ,1,1,0.,24.0,0.,24.0,0.,24.0,0.,24.0
1979-07-16 00:01:20.100 ,1,0,0.,24.0,0.,24.0,0.,24.0,0.,24.0
1979-07-16 00:01:44.100 ,2,1,0.,24.0,0.,24.0,0.,24.0,0.,24.0
1979-07-16 00:02:08.100 ,2,0,0.,24.0,0.,24.0,0.,24.0,0.,24.0
1979-07-16 00:02:32.100 ,3,1,0.,24.0,0.,24.0,0.,24.0,0.,24.0
1979-07-16 00:02:56.100 ,3,0,0.,24.0,0.,24.0,0.,24.0,0.,24.0
1979-07-16 00:03:20.100 ,4,1,0.,24.0,0.,24.0,0.,24.0,0.,24.0
1979-07-16 00:03:44.100 ,4,0,0.,24.0,0.,24.0,0.,24.0,0.,24.0
1979-07-16 00:04:08.100 ,5,1,0.,24.0,0.,24.0,0.,24.0,0.,24.0
1979-07-16 00:04:32.100 ,5,0,0.,24.0,0.,24.0,0.,24.0,0.,24.0
1979-07-16 00:04:56.100 ,6,1,0.,24.0,0.,24.0,0.,24.0,0.,24.0
1979-07-16 00:05:20.100 ,6,0,0.,24.0,0.,24.0,0.,24.0,0.,24.0
1979-07-16 00:05:44.100 ,7,1,0.,24.0,0.,24.0,0.,24.0,0.,24.0
1979-07-16 00:06:08.100 ,7,0,0.,24.0,0.,24.0,0.,24.0,0.,24.0
1979-07-16 00:06:32.100 ,7,1,0.,24.0,0.,24.0,0.,24.0,0.,24.0
1979-07-16 00:06:56.100 ,7,0,0.,24.0,0.,24.0,0.,24.0,0.,24.0
1979-07-16 00:07:20.100 ,6,1,0.,24.0,0.,24.0,0.,24.0,0.,24.0
1979-07-16 00:07:44.100 ,0,0,,0,,0,,0,,0
1979-07-16 00:07:46.490 ,0,0,,0,,0,,0,,0
1979-07-16 00:07:47.100 ,0,0,,0,,0,,0,,0
1979-07-16 00:07:47.100 ,0,0,,0,,0,,0,,0
1979-07-16 00:07:47.700 ,0,0,,0,,0,,0,,0
1979-07-16 00:07:47.700 ,0,0,,0,,0,,0,,0
1979-07-16 00:07:48.290 ,0,0,,0,,0,,0,,0
1979-07-16 00:07:48.290 ,0,0,,0,,0,,0,,0
1979-07-16 00:07:48.890 ,0,0,,0,,0,,0,,0
1979-07-16 00:07:48.890 ,0,0,,0,,0,,0,,0
1979-07-16 00:07:49.490 ,0,0,,0,,0,,0,,0
1979-07-16 00:07:49.490 ,0,0,,0,,0,,0,,0
1979-07-16 00:07:46.490 ,0,0,,0,,0,,0,,0
1979-07-16 00:07:47.100 ,0,0,,0,,0,,0,,0
1979-07-16 00:07:47.100 ,0,0,,0,,0,,0,,0
1979-07-16 00:07:47.700 ,0,0,,0,,0,,0,,0
1979-07-16 00:07:47.700 ,0,0,,0,,0,,0,,0
1979-07-16 00:07:48.290 ,0,0,,0,,0,,0,,0
1979-07-16 00:07:48.290 ,0,0,,0,,0,,0,,0
1979-07-16 00:07:48.890 ,0,0,,0,,0,,0,,0
1979-07-16 00:07:48.890 ,0,0,,0,,0,,0,,0
1979-07-16 00:07:49.490 ,0,0,,0,,0,,0,,0
1979-07-16 00:07:49.490 ,0,0,,0,,0,,0,,0
1979-07-16 00:07:50.100 ,0,0,,0,,0,,0,,0
1979-07-16 00:07:50.100 ,0,0,,0,,0,,0,,0
1979-07-16 00:07:50.700 ,0,0,,0,,0,,0,,0
1979-07-16 00:07:50.700 ,0,0,,0,,0,,0,,0
1979-07-16 00:07:51.290 ,0,0,,0,,0,,0,,0
1979-07-16 00:07:51.290 ,0,0,,0,,0,,0,,0
1979-07-16 00:07:51.890 ,0,0,,0,,0,,0,,0
1979-07-16 00:07:51.890 ,0,0,,0,,0,,0,,0
1979-07-16 00:07:52.490 ,0,0,,0,,0,,0,,0
1979-07-16 00:07:52.490 ,0,0,,0,,0,,0,,0
1979-07-16 00:07:53.100 ,0,0,0.,24.0,0.,24.0,0.,24.0,0.,24.0
1979-07-16 00:07:53.100 ,0,0,0.,24.0,0.,24.0,0.,24.0,0.,24.0
1979-07-16 00:07:53.700 ,0,0,,0,,0,,0,,0
1979-07-16 00:07:53.700 ,0,0,,0,,0,,0,,0
1979-07-16 00:07:54.290 ,0,0,,0,,0,,0,,0
1979-07-16 00:07:54.290 ,0,0,,0,,0,,0,,0
1979-07-16 00:08:08.100 ,5,1,0.,24.0,0.,24.0,0.,24.0,0.,24.0
1979-07-16 00:08:32.100 ,5,0,0.,24.0,0.,24.0,0.,24.0,0.,24.0
1979-07-16 00:08:56.100 ,4,1,0.,24.0,0.,24.0,0.,24.0,0.,24.0
1979-07-16 00:09:20.100 ,4,0,0.,24.0,0.,24.0,0.,24.0,0.,24.0
1979-07-16 00:09:44.100 ,3,1,0.,24.0,0.,24.0,0.,24.0,0.,24.0
1979-07-16 00:10:08.100 ,3,0,0.,24.0,0.,24.0,0.,24.0,0.,24.0
1979-07-16 00:10:32.100 ,2,1,0.,24.0,0.,24.0,0.,24.0,0.,24.0
1979-07-16 00:10:56.100 ,2,0,0.,24.0,0.,24.0,0.,24.0,0.,24.0
1979-07-16 00:11:20.100 ,1,1,0.,24.0,0.,24.0,0.,24.0,0.,24.0
1979-07-16 00:11:44.100 ,1,0,0.,24.0,0.,24.0,0.,24.0,0.,24.0
1979-07-16 00:12:08.100 ,0,1,0.,24.0,0.,24.0,0.,24.0,0.,24.0
1979-07-16 00:12:32.100 ,0,0,0.,24.0,0.,24.0,0.,24.0,0.,24.0
1979-07-16 00:12:56.100 ,0,1,0.,24.0,0.,24.0,0.,24.0,0.,24.0
1979-07-16 00:13:20.100 ,0,0,0.,24.0,0.,24.0,0.,24.0,0.,24.0
1979-07-16 00:13:44.100 ,1,1,0.,24.0,0.,24.0,0.,24.0,0.,24.0
1979-07-16 00:14:08.100 ,1,0,0.,24.0,0.,24.0,0.,24.0,0.,24.0
1979-07-16 00:14:32.100 ,2,1,0.,24.0,0.,24.0,0.,24.0,0.,24.0
1979-07-16 00:14:56.100 ,2,0,0.,24.0,0.,24.0,0.,24.0,0.,24.0
1979-07-16 00:15:20.100 ,3,1,0.,24.0,0.,24.0,0.,24.0,0.,24.0
1979-07-16 00:15:44.100 ,3,0,0.,24.0,0.,24.0,0.,24.0,0.,24.0
1979-07-16 00:16:08.100 ,4,1,0.,24.0,0.,24.0,0.,24.0,0.,24.0
1979-07-16 00:16:32.100 ,4,0,0.,24.0,0.,24.0,0.,24.0,0.,24.0
1979-07-16 00:16:56.100 ,5,1,0.,24.0,0.,24.0,0.,24.0,0.,24.0
1979-07-16 00:17:20.090 ,5,0,0.,24.0,0.,24.0,0.,24.0,0.,24.0
1979-07-16 00:17:44.090 ,6,1,0.,24.0,0.,24.0,0.,24.0,0.,24.0
1979-07-16 00:18:08.090 ,6,0,0.,24.0,0.,24.0,0.,24.0,0.,24.0
1979-07-16 00:18:32.090 ,7,0,0.,24.0,0.,24.0,0.,24.0,0.,24.0
1979-07-16 00:18:56.090 ,7,0,0.,24.0,0.,24.0,0.,24.0,0.,24.0
1979-07-16 00:19:20.090 ,5,1,0.,24.0,0.,24.0,0.,24.0,0.,24.0
1979-07-16 00:19:44.090 ,1,1,0.,24.0,0.,24.0,0.,24.0,0.,24.0
1979-07-16 00:20:08.090 ,2,1,0.,24.0,0.,24.0,0.,24.0,0.,24.0
1979-07-16 00:20:32.090 ,6,1,0.,24.0,0.,24.0,0.,24.0,0.,24.0
1979-07-16 00:20:56.090 ,5,1,0.,24.0,0.,24.0,0.,24.0,0.,24.0
1979-07-16 00:21:20.090 ,1,1,0.,24.0,0.,24.0,0.,24.0,0.,24.0
1979-07-16 00:21:44.090 ,2,1,0.,24.0,0.,24.0,0.,24.0,0.,24.0
1979-07-16 00:22:08.090 ,6,1,0.,24.0,0.,24.0,0.,24.0,0.,24.0
1979-07-16 00:22:32.090 ,5,1,0.,24.0,0.,24.0,0.,24.0,0.,24.0
1979-07-16 00:22:56.090 ,1,1,0.,24.0,0.,24.0,0.,24.0,0.,24.0
1979-07-16 00:23:20.090 ,2,1,0.,24.0,0.,24.0,0.,24.0,0.,24.0
1979-07-16 00:23:44.090 ,6,1,0.,24.0,0.,24.0,0.,24.0,0.,24.0
1979-07-16 00:24:08.090 ,5,1,0.,24.0,0.,24.0,0.,24.0,0.,24.0
1979-07-16 00:24:32.090 ,1,1,0.,24.0,0.,24.0,0.,24.0,0.,24.0
1979-07-16 00:24:56.090 ,2,1,0.,24.0,0.,24.0,0.,24.0,0.,24.0
1979-07-16 00:25:20.090 ,6,1,0.,24.0,0.,24.0,0.,24.0,0.,24.0
1979-07-16 00:25:44.090 ,5,1,0.,24.0,0.,24.0,0.,24.0,0.,24.0
1979-07-16 00:26:08.090 ,1,1,0.,24.0,0.,24.0,0.,24.0,0.,24.0
1979-07-16 00:26:32.090 ,2,1,0.,24.0,0.,24.0,0.,24.0,0.,24.0
1979-07-16 00:26:56.090 ,6,1,0.,24.0,0.,24.0,0.,24.0,0.,24.0
1979-07-16 00:27:20.090 ,5,1,0.,24.0,0.,24.0,0.,24.0,0.,24.0
1979-07-16 00:27:44.090 ,1,1,0.,24.0,0.,24.0,0.,24.0,0.,24.0
1979-07-16 00:28:08.090 ,2,1,0.,24.0,0.,24.0,0.,24.0,0.,24.0
1979-07-16 00:28:32.090 ,6,1,0.,24.0,0.,24.0,0.,24.0,0.,24.0
1979-07-16 00:28:56.090 ,5,1,0.,24.0,0.,24.0,0.,24.0,0.,24.0
1979-07-16 00:29:20.090 ,1,1,0.,24.0,0.,24.0,0.,24.0,0.,24.0
1979-07-16 00:29:44.090 ,0,0,0.,24.0,0.,24.0,0.,24.0,0.,24.0
1979-07-16 00:30:08.090 ,0,0,0.,24.0,0.,24.0,0.,24.0,0.,24.0
1979-07-16 00:30:32.090 ,5,1,0.,24.0,0.,24.0,0.,24.0,0.,24.0
1979-07-16 00:30:56.090 ,5,0,0.,24.0,0.,24.0,0.,24.0,0.,24.0
1979-07-16 00:31:20.090 ,4,1,0.,24.0,0.,24.0,0.,24.0,0.,24.0
1979-07-16 00:31:44.090 ,4,0,0.,24.0,0.,24.0,0.,24.0,0.,24.0
1979-07-16 00:32:08.090 ,3,1,0.,24.0,0.,24.0,0.,24.0,0.,24.0
1979-07-16 00:32:32.090 ,3,0,0.,24.0,0.,24.0,0.,24.0,0.,24.0
1979-07-16 00:32:56.090 ,2,1,0.,24.0,0.,24.0,0.,24.0,0.,24.0
1979-07-16 00:33:20.090 ,2,0,0.,24.0,0.,24.0,0.,24.0,0.,24.0
1979-07-16 00:33:44.090 ,1,1,0.,24.0,0.,24.0,0.,24.0,0.,24.0
1979-07-16 00:34:08.090 ,1,0,0.,24.0,0.,24.0,0.,24.0,0.,24.0
1979-07-16 00:34:32.090 ,0,1,0.,24.0,0.,24.0,0.,24.0,0.,24.0
1979-07-16 00:34:56.090 ,0,0,0.,24.0,0.,24.0,0.,24.0,0.,24.0
1979-07-16 00:35:20.090 ,0,1,0.,24.0,0.,24.0,0.,24.0,0.,24.0
1979-07-16 00:35:44.090 ,0,0,0.,24.0,0.,24.0,0.,24.0,0.,24.0
1979-07-16 00:36:08.090 ,1,1,0.,24.0,0.,24.0,0.,24.0,0.,24.0
1979-07-16 00:36:32.090 ,1,0,0.,24.0,0.,24.0,0.,24.0,0.,24.0
1979-07-16 00:36:56.090 ,2,1,0.,24.0,0.,24.0,0.,24.0,0.,24.0
1979-07-16 00:37:20.090 ,2,0,0.,24.0,0.,24.0,0.,24.0,0.,24.0
1979-07-16 00:37:44.090 ,3,1,0.,24.0,0.,24.0,0.,24.0,0.,24.0
1979-07-16 00:38:08.090 ,3,0,0.,24.0,0.,24.0,0.,24.0,0.,24.0
1979-07-16 00:38:32.090 ,4,1,0.,24.0,0.,24.0,0.,24.0,0.,24.0
1979-07-16 00:38:56.090 ,4,0,0.,24.0,0.,24.0,0.,24.0,0.,24.0
1979-07-16 00:39:20.090 ,5,1,0.,24.0,0.,24.0,0.,24.0,0.,24.0
1979-07-16 00:39:44.090 ,5,0,0.,24.0,0.,24.0,0.,24.0,0.,24.0
1979-07-16 00:40:08.090 ,6,1,0.,24.0,0.,24.0,0.,24.0,0.,24.0
1979-07-16 00:40:32.090 ,6,0,0.,24.0,0.,24.0,0.,24.0,0.,24.0
1979-07-16 00:40:56.090 ,7,1,0.,24.0,0.,24.0,0.,24.0,0.,24.0
1979-07-16 00:41:20.090 ,7,0,0.,24.0,0.,24.0,0.,24.0,0.,24.0
1979-07-16 00:41:44.090 ,7,1,0.,24.0,0.,24.0,0.,24.0,0.,24.0
1979-07-16 00:42:08.090 ,7,0,0.,24.0,0.,24.0,0.,24.0,0.,24.0
1979-07-16 00:42:32.090 ,6,1,0.,24.0,0.,24.0,0.,24.0,0.,24.0
1979-07-16 00:42:56.090 ,6,0,0.,24.0,0.,24.0,0.,24.0,0.,24.0
1979-07-16 00:43:20.090 ,5,1,0.,24.0,0.,24.0,0.,24.0,0.,24.0
1979-07-16 00:43:44.090 ,5,0,0.,24.0,0.,24.0,0.,24.0,0.,24.0
1979-07-16 00:44:08.090 ,4,1,0.,24.0,0.,24.0,0.,24.0,0.,24.0
1979-07-16 00:44:32.090 ,4,0,0.,24.0,0.,24.0,0.,24.0,0.,24.0
1979-07-16 00:44:56.090 ,3,1,0.,24.0,0.,24.0,0.,24.0,0.,24.0
1979-07-16 00:45:20.090 ,3,0,0.,24.0,0.,24.0,0.,24.0,0.,24.0
1979-07-16 00:45:44.090 ,2,1,0.,24.0,0.,24.0,0.,24.0,0.,24.0
1979-07-16 00:46:08.090 ,2,0,0.,24.0,0.,24.0,0.,24.0,0.,24.0
1979-07-16 00:46:32.090 ,1,1,,0,,0,,0,,0
1979-07-16 00:46:56.090 ,1,0,0.,24.0,0.,24.0,0.,24.0,0.,24.0
1979-07-16 00:47:20.090 ,0,1,0.,24.0,0.,24.0,0.,24.0,0.,24.0
1979-07-16 00:47:44.090 ,0,0,0.,24.0,0.,24.0,0.,24.0,0.,24.0
1979-07-16 00:48:08.090 ,0,1,0.,24.0,0.,24.0,0.,24.0,0.,24.0
1979-07-16 00:48:32.090 ,0,0,0.,24.0,0.,24.0,0.,24.0,0.,24.0
1979-07-16 00:48:56.090 ,1,1,0.,24.0,0.,24.0,0.,24.0,0.,24.0
1979-07-16 00:49:20.090 ,1,0,0.,24.0,0.,24.0,0.,24.0,0.,24.0
1979-07-16 00:49:44.090 ,2,1,0.,24.0,0.,24.0,0.,24.0,0.,24.0
1979-07-16 00:50:08.090 ,2,0,0.,24.0,0.,24.0,0.,24.0,0.,24.0
1979-07-16 00:50:32.090 ,3,1,0.,24.0,0.,24.0,0.,24.0,0.,24.0
1979-07-16 00:50:56.090 ,3,0,0.,24.0,0.,24.0,0.,24.0,0.,24.0
1979-07-16 00:51:20.090 ,4,1,0.,24.0,0.,24.0,0.,24.0,0.,24.0
1979-07-16 00:51:44.090 ,4,0,0.,24.0,0.,24.0,0.,24.0,0.,24.0
1979-07-16 00:52:08.090 ,5,1,0.,24.0,0.,24.0,0.,24.0,0.,24.0
1979-07-16 00:52:32.090 ,5,0,0.,24.0,0.,24.0,0.,24.0,0.,24.0
1979-07-16 00:52:56.090 ,6,1,0.,24.0,0.,24.0,0.,24.0,0.,24.0
1979-07-16 00:53:20.090 ,6,0,0.,24.0,0.,24.0,0.,24.0,0.,24.0
1979-07-16 00:53:44.090 ,7,1,0.,24.0,0.,24.0,0.,24.0,0.,24.0
1979-07-16 00:54:08.090 ,7,0,0.,24.0,0.,24.0,0.,24.0,0.,24.0
1979-07-16 00:54:32.090 ,0,0,0.,24.0,0.,24.0,0.,24.0,0.,24.0
1979-07-16 00:54:56.090 ,0,0,0.,24.0,0.,24.0,0.,24.0,0.,24.0
1979-07-16 00:55:20.090 ,6,1,0.,24.0,0.,24.0,0.,24.0,0.,24.0
1979-07-16 00:55:44.090 ,6,0,0.,24.0,0.,24.0,0.,24.0,0.,24.0
1979-07-16 00:56:08.090 ,5,1,0.,24.0,0.,24.0,0.,24.0,0.,24.0
1979-07-16 00:56:32.090 ,5,0,0.,24.0,0.,24.0,0.,24.0,0.,24.0
1979-07-16 00:56:56.090 ,4,1,0.,24.0,0.,24.0,0.,24.0,0.,24.0
1979-07-16 00:57:20.090 ,4,0,0.,24.0,0.,24.0,0.,24.0,0.,24.0
1979-07-16 00:57:44.090 ,3,1,0.,24.0,0.,24.0,0.,24.0,0.,24.0
1979-07-16 00:58:08.090 ,3,0,0.,24.0,0.,24.0,0.,24.0,0.,24.0
1979-07-16 00:58:32.090 ,2,1,0.,24.0,0.,24.0,0.,24.0,0.,24.0
1979-07-16 00:58:56.090 ,2,0,0.,24.0,0.,24.0,0.,24.0,0.,24.0
1979-07-16 00:59:20.090 ,1,1,0.,24.0,0.,24.0,0.,24.0,0.,24.0
1979-07-16 00:59:44.090 ,1,0,0.,24.0,0.,24.0,0.,24.0,0.,24.0
1979-07-16 01:00:08.090 ,0,1,0.,24.0,0.,24.0,0.,24.0,0.,24.0
1979-07-16 01:00:32.090 ,0,0,0.,24.0,0.,24.0,0.,24.0,0.,24.0
1979-07-16 01:00:56.090 ,0,1,0.,24.0,0.,24.0,0.,24.0,0.,24.0
1979-07-16 01:01:20.090 ,0,0,0.,24.0,0.,24.0,0.,24.0,0.,24.0
1979-07-16 01:01:44.090 ,1,1,0.,24.0,0.,24.0,0.,24.0,0.,24.0
1979-07-16 01:02:08.090 ,1,0,0.,24.0,0.,24.0,0.,24.0,0.,24.0
1979-07-16 01:02:32.090 ,2,1,0.,24.0,0.,24.0,0.,24.0,0.,24.0
1979-07-16 01:02:56.090 ,2,0,0.,24.0,0.,24.0,0.,24.0,0.,24.0
1979-07-16 01:03:20.090 ,3,1,0.,24.0,0.,24.0,0.,24.0,0.,24.0
1979-07-16 01:03:44.090 ,3,0,0.,24.0,0.,24.0,0.,24.0,0.,24.0
1979-07-16 01:04:08.090 ,4,1,0.,24.0,0.,24.0,0.,24.0,0.,24.0
1979-07-16 01:04:32.090 ,4,0,0.,24.0,0.,24.0,0.,24.0,0.,24.0
1979-07-16 01:04:56.090 ,5,1,0.,24.0,0.,24.0,0.,24.0,0.,24.0
1979-07-16 01:05:20.090 ,5,0,0.,24.0,0.,24.0,0.,24.0,0.,24.0
1979-07-16 01:05:44.090 ,6,1,0.,24.0,0.,24.0,0.,24.0,0.,24.0
1979-07-16 01:06:08.090 ,6,0,0.,24.0,0.,24.0,0.,24.0,0.,24.0
1979-07-16 01:06:32.090 ,7,0,0.,24.0,0.,24.0,0.,24.0,0.,24.0
1979-07-16 01:06:56.090 ,7,0,0.,24.0,0.,24.0,0.,24.0,0.,24.0
1979-07-16 01:07:20.090 ,5,1,0.,24.0,0.,24.0,0.,24.0,0.,24.0
1979-07-16 01:07:44.090 ,1,1,0.,24.0,0.,24.0,0.,24.0,0.,24.0
1979-07-16 01:08:08.090 ,2,1,0.,24.0,0.,24.0,0.,24.0,0.,24.0
1979-07-16 01:08:32.090 ,6,1,0.,24.0,0.,24.0,0.,24.0,0.,24.0
1979-07-16 01:08:56.090 ,5,1,0.,24.0,0.,24.0,0.,24.0,0.,24.0
1979-07-16 01:09:20.090 ,1,1,0.,24.0,0.,24.0,0.,24.0,0.,24.0
1979-07-16 01:09:44.090 ,2,1,0.,24.0,0.,24.0,0.,24.0,0.,24.0
1979-07-16 01:10:08.090 ,6,1,0.,24.0,0.,24.0,0.,24.0,0.,24.0
1979-07-16 01:10:32.090 ,5,1,0.,24.0,0.,24.0,0.,24.0,0.,24.0
1979-07-16 01:10:56.090 ,1,1,0.,24.0,0.,24.0,0.,24.0,0.,24.0
1979-07-16 01:11:20.090 ,2,1,0.,24.0,0.,24.0,0.,24.0,0.,24.0
1979-07-16 01:11:44.090 ,6,1,0.,24.0,0.,24.0,0.,24.0,0.,24.0
1979-07-16 01:12:08.090 ,5,1,0.,24.0,0.,24.0,0.,24.0,0.,24.0
1979-07-16 01:12:32.090 ,1,1,0.,24.0,0.,24.0,0.,24.0,0.,24.0
1979-07-16 01:12:56.090 ,2,1,0.,24.0,0.,24.0,0.,24.0,0.,24.0
1979-07-16 01:13:20.090 ,6,1,0.,24.0,0.,24.0,0.,24.0,0.,24.0
1979-07-16 01:13:44.090 ,5,1,0.,24.0,0.,24.0,0.,24.0,0.,24.0
1979-07-16 01:14:08.090 ,1,1,0.,24.0,0.,24.0,0.,24.0,0.,24.0
1979-07-16 01:14:32.090 ,2,1,0.,24.0,0.,24.0,0.,24.0,0.,24.0
1979-07-16 01:14:56.090 ,6,1,0.,24.0,0.,24.0,0.,24.0,0.,24.0
1979-07-16 01:15:20.090 ,5,1,0.,24.0,0.,24.0,0.,24.0,0.,24.0
1979-07-16 01:15:44.090 ,1,1,0.,24.0,0.,24.0,0.,24.0,0.,24.0
1979-07-16 01:16:08.090 ,2,1,0.,24.0,0.,24.0,0.,24.0,0.,24.0
1979-07-16 01:16:32.090 ,6,1,0.,24.0,0.,24.0,0.,24.0,0.,24.0
1979-07-16 01:16:56.090 ,5,1,0.,24.0,0.,24.0,0.,24.0,0.,24.0
1979-07-16 01:17:20.090 ,1,1,0.,24.0,0.,24.0,0.,24.0,0.,24.0
1979-07-16 01:17:44.090 ,0,0,0.,24.0,0.,24.0,0.,24.0,0.,24.0
1979-07-16 01:18:08.090 ,0,0,0.,24.0,0.,24.0,0.,24.0,0.,24.0
1979-07-16 01:18:32.090 ,5,1,0.,24.0,0.,24.0,0.,24.0,0.,24.0
1979-07-16 01:18:56.090 ,5,0,0.,24.0,0.,24.0,0.,24.0,0.,24.0
1979-07-16 01:19:20.090 ,4,1,0.,24.0,0.,24.0,0.,24.0,0.,24.0
1979-07-16 01:19:44.090 ,4,0,0.,24.0,0.,24.0,0.,24.0,0.,24.0
1979-07-16 01:20:08.090 ,3,1,0.,24.0,0.,24.0,0.,24.0,0.,24.0
1979-07-16 01:20:32.090 ,3,0,0.,24.0,0.,24.0,0.,24.0,0.,24.0
1979-07-16 01:20:56.090 ,2,1,0.,24.0,0.,24.0,0.,24.0,0.,24.0
1979-07-16 01:21:20.090 ,0,0,0.,24.0,0.,24.0,0.,24.0,0.,24.0
1979-07-16 01:22:05.690 ,0,0,,0,,0,,0,,0
1979-07-16 01:22:08.090 ,0,0,0.,24.0,0.,24.0,0.,24.0,0.,24.0
1979-07-16 01:22:32.090 ,0,1,0.,24.0,0.,24.0,0.,24.0,0.,24.0
1979-07-16 01:22:56.090 ,0,0,0.,24.0,0.,24.0,0.,24.0,0.,24.0
1979-07-16 01:23:20.090 ,0,1,0.,24.0,0.,24.0,0.,24.0,0.,24.0
1979-07-16 01:23:44.090 ,0,0,0.,24.0,0.,24.0,0.,24.0,0.,24.0
1979-07-16 01:24:08.090 ,1,1,0.,24.0,0.,24.0,0.,24.0,0.,24.0
1979-07-16 01:24:32.090 ,1,0,0.,24.0,0.,24.0,0.,24.0,0.,24.0
1979-07-16 01:24:56.090 ,2,1,0.,24.0,0.,24.0,0.,24.0,0.,24.0
1979-07-16 01:25:20.090 ,2,0,0.,24.0,0.,24.0,0.,24.0,0.,24.0
1979-07-16 01:25:44.090 ,3,1,0.,24.0,0.,24.0,0.,24.0,0.,24.0
1979-07-16 01:26:08.090 ,3,0,0.,24.0,0.,24.0,0.,24.0,0.,24.0
1979-07-16 01:26:32.090 ,4,1,0.,24.0,0.,24.0,0.,24.0,0.,24.0
1979-07-16 01:26:56.090 ,4,0,0.,24.0,0.,24.0,0.,24.0,0.,24.0
1979-07-16 01:27:20.090 ,5,1,0.,24.0,0.,24.0,0.,24.0,0.,24.0
1979-07-16 01:27:44.090 ,5,0,0.,24.0,0.,24.0,0.,24.0,0.,24.0
1979-07-16 01:28:08.090 ,6,1,0.,24.0,0.,24.0,0.,24.0,0.,24.0
1979-07-16 01:28:32.090 ,6,0,0.,24.0,0.,24.0,0.,24.0,0.,24.0
1979-07-16 01:28:56.090 ,7,1,0.,24.0,0.,24.0,0.,24.0,0.,24.0
1979-07-16 01:29:20.090 ,7,0,0.,24.0,0.,24.0,0.,24.0,0.,24.0
1979-07-16 01:30:32.090 ,0,0,0.,24.0,0.,24.0,0.,24.0,0.,24.0
1979-07-16 01:30:56.090 ,0,0,0.,24.0,0.,24.0,0.,24.0,0.,24.0
1979-07-16 01:31:20.090 ,0,0,0.,24.0,0.,24.0,0.,24.0,0.,24.0
1979-07-16 01:31:44.090 ,0,0,0.,24.0,0.,24.0,0.,24.0,0.,24.0
1979-07-16 01:32:08.090 ,0,0,,0,,0,,0,,0
1979-07-16 01:32:32.090 ,0,0,,0,,0,,0,,0
1979-07-16 01:32:56.090 ,0,0,0.,24.0,0.,24.0,0.,24.0,0.,24.0
1979-07-16 01:33:20.090 ,0,0,,0,,0,,0,,0
1979-07-16 01:33:44.090 ,0,0,,0,,0,,0,,0
1979-07-16 01:34:08.090 ,0,0,,0,,0,,0,,0
1979-07-16 01:35:20.690 ,0,0,0.,24.0,0.,24.0,0.,24.0,0.,24.0
1979-07-16 01:35:44.090 ,0,0,0.,24.0,0.,24.0,0.,24.0,0.,24.0
1979-07-16 01:36:08.090 ,0,1,0.,24.0,0.,24.0,0.,24.0,0.,24.0
1979-07-16 01:36:32.090 ,0,0,0.,24.0,0.,24.0,0.,24.0,0.,24.0
1979-07-16 01:36:56.090 ,1,1,0.,24.0,0.,24.0,0.,24.0,0.,24.0
1979-07-16 01:37:20.090 ,0,0,0.,24.0,0.,24.0,0.,24.0,0.,24.0
1979-07-16 01:37:44.090 ,0,0,,0,,0,,0,,0
1979-07-16 01:38:08.090 ,0,0,0.,24.0,0.,24.0,0.,24.0,0.,24.0
1979-07-16 01:38:32.090 ,0,0,0.,24.0,0.,24.0,0.,24.0,0.,24.0
1979-07-16 01:38:56.090 ,0,0,0.,24.0,0.,24.0,0.,24.0,0.,24.0
1979-07-16 01:39:20.090 ,4,0,,0,,0,,0,,0
1979-07-16 01:39:44.090 ,4,0,0.,24.0,0.,24.0,0.,24.0,0.,24.0
1979-07-16 01:40:08.090 ,0,0,0.,24.0,0.,24.0,0.,24.0,0.,24.0
1979-07-16 01:40:32.090 ,0,0,0.,24.0,0.,24.0,0.,24.0,0.,24.0
1979-07-16 01:40:56.090 ,6,1,0.,24.0,0.,24.0,0.,24.0,0.,24.0
1979-07-16 01:41:20.090 ,6,0,,0,,0,,0,,0
1979-07-16 01:41:44.090 ,0,0,0.,24.0,0.,24.0,0.,24.0,0.,24.0
1979-07-16 01:42:08.090 ,0,0,0.,24.0,0.,24.0,0.,24.0,0.,24.0
1979-07-16 01:42:32.090 ,0,0,0.,24.0,0.,24.0,0.,24.0,0.,24.0
1979-07-16 01:42:56.090 ,0,0,0.,24.0,0.,24.0,0.,24.0,0.,24.0
1979-07-16 01:43:20.090 ,6,1,0.,24.0,0.,24.0,0.,24.0,0.,24.0
1979-07-16 01:43:44.090 ,6,0,,0,,0,,0,,0
1979-07-16 01:44:08.090 ,5,0,,0,,0,,0,,0
1979-07-16 01:44:32.090 ,0,0,0.,24.0,0.,24.0,0.,24.0,0.,24.0
1979-07-16 01:44:56.690 ,0,0,0.,24.0,0.,24.0,0.,24.0,0.,24.0
1979-07-16 01:45:20.090 ,0,0,0.,24.0,0.,24.0,0.,24.0,0.,24.0
1979-07-16 01:45:44.090 ,3,1,0.,24.0,0.,24.0,0.,24.0,0.,24.0
1979-07-16 01:46:08.090 ,3,0,0.,24.0,0.,24.0,0.,24.0,0.,24.0
1979-07-16 01:46:32.090 ,2,1,0.,24.0,0.,24.0,0.,24.0,0.,24.0
1979-07-16 01:46:56.090 ,2,0,0.,24.0,0.,24.0,0.,24.0,0.,24.0
1979-07-16 01:47:20.090 ,0,0,0.,24.0,0.,24.0,0.,24.0,0.,24.0
1979-07-16 01:47:44.090 ,0,0,0.,24.0,0.,24.0,0.,24.0,0.,24.0
1979-07-16 01:48:08.090 ,0,1,0.,24.0,0.,24.0,0.,24.0,0.,24.0
1979-07-16 01:48:32.090 ,0,0,0.,24.0,0.,24.0,0.,24.0,0.,24.0
1979-07-16 01:48:56.090 ,0,1,0.,24.0,0.,24.0,0.,24.0,0.,24.0
1979-07-16 01:49:20.090 ,0,0,0.,24.0,0.,24.0,0.,24.0,0.,24.0
1979-07-16 01:49:44.090 ,1,1,0.,24.0,0.,24.0,0.,24.0,0.,24.0
1979-07-16 01:50:08.090 ,1,0,0.,24.0,0.,24.0,0.,24.0,0.,24.0
1979-07-16 01:50:32.090 ,2,1,0.,24.0,0.,24.0,0.,24.0,0.,24.0
1979-07-16 01:50:56.090 ,2,0,0.,24.0,0.,24.0,0.,24.0,0.,24.0
1979-07-16 01:51:20.090 ,3,1,0.,24.0,0.,24.0,0.,24.0,0.,24.0
1979-07-16 01:51:44.090 ,3,0,0.,24.0,0.,24.0,0.,24.0,0.,24.0
1979-07-16 01:52:08.090 ,4,1,0.,24.0,0.,24.0,0.,24.0,0.,24.0
1979-07-16 01:52:32.090 ,4,0,0.,24.0,0.,24.0,0.,24.0,0.,24.0
1979-07-16 01:52:56.090 ,5,1,0.,24.0,0.,24.0,0.,24.0,0.,24.0
1979-07-16 01:53:20.090 ,5,0,0.,24.0,0.,24.0,0.,24.0,0.,24.0
1979-07-16 01:53:44.090 ,6,1,0.,24.0,0.,24.0,0.,24.0,0.,24.0
1979-07-16 01:54:08.090 ,6,0,0.,24.0,0.,24.0,0.,24.0,0.,24.0
1979-07-16 01:54:32.090 ,7,0,0.,24.0,0.,24.0,0.,24.0,0.,24.0
1979-07-16 01:54:56.090 ,7,0,0.,24.0,0.,24.0,0.,24.0,0.,24.0
1979-07-16 01:55:20.090 ,5,1,0.,24.0,0.,24.0,0.,24.0,0.,24.0
1979-07-16 01:55:44.090 ,1,1,0.,24.0,0.,24.0,0.,24.0,0.,24.0
1979-07-16 01:56:08.090 ,2,1,0.,24.0,0.,24.0,0.,24.0,0.,24.0
1979-07-16 01:56:32.090 ,6,1,0.,24.0,0.,24.0,0.,24.0,0.,24.0
1979-07-16 01:56:56.090 ,5,1,0.,24.0,0.,24.0,0.,24.0,0.,24.0
1979-07-16 01:57:20.090 ,1,1,0.,24.0,0.,24.0,0.,24.0,0.,24.0
1979-07-16 01:57:44.090 ,2,1,0.,24.0,0.,24.0,0.,24.0,0.,24.0
1979-07-16 01:58:08.090 ,6,1,0.,24.0,0.,24.0,0.,24.0,0.,24.0
1979-07-16 01:58:32.090 ,5,1,0.,24.0,0.,24.0,0.,24.0,0.,24.0
1979-07-16 01:58:56.090 ,1,1,0.,24.0,0.,24.0,0.,24.0,0.,24.0
1979-07-16 01:59:20.090 ,2,1,0.,24.0,0.,24.0,0.,24.0,0.,24.0
1979-07-16 01:59:44.090 ,6,1,0.,24.0,0.,24.0,0.,24.0,0.,24.0
1979-07-16 02:00:08.090 ,5,1,0.,24.0,0.,24.0,0.,24.0,0.,24.0
1979-07-16 02:00:32.090 ,1,1,0.,24.0,0.,24.0,0.,24.0,0.,24.0
1979-07-16 02:00:56.090 ,2,1,0.,24.0,0.,24.0,0.,24.0,0.,24.0
1979-07-16 02:01:20.090 ,6,1,0.,24.0,0.,24.0,0.,24.0,0.,24.0
1979-07-16 02:01:44.090 ,5,1,0.,24.0,0.,24.0,0.,24.0,0.,24.0
1979-07-16 02:02:08.090 ,1,1,0.,24.0,0.,24.0,0.,24.0,0.,24.0
1979-07-16 02:02:32.090 ,2,1,0.,24.0,0.,24.0,0.,24.0,0.,24.0
1979-07-16 02:02:56.090 ,6,1,0.,24.0,0.,24.0,0.,24.0,0.,24.0
1979-07-16 02:03:20.090 ,5,1,0.,24.0,0.,24.0,0.,24.0,0.,24.0
1979-07-16 02:03:44.090 ,1,1,0.,24.0,0.,24.0,0.,24.0,0.,24.0
1979-07-16 02:04:08.090 ,2,1,0.,24.0,0.,24.0,0.,24.0,0.,24.0
1979-07-16 02:04:32.090 ,6,1,0.,24.0,0.,24.0,0.,24.0,0.,24.0
1979-07-16 02:04:56.090 ,5,1,0.,24.0,0.,24.0,0.,24.0,0.,24.0
1979-07-16 02:05:20.090 ,1,1,0.,24.0,0.,24.0,0.,24.0,0.,24.0
1979-07-16 02:05:44.090 ,0,0,0.,24.0,0.,24.0,0.,24.0,0.,24.0
1979-07-16 02:06:08.090 ,0,0,0.,24.0,0.,24.0,0.,24.0,0.,24.0
1979-07-16 02:06:32.090 ,5,1,0.,24.0,0.,24.0,0.,24.0,0.,24.0
1979-07-16 02:06:56.090 ,5,0,0.,24.0,0.,24.0,0.,24.0,0.,24.0
1979-07-16 02:07:20.090 ,4,1,0.,24.0,0.,24.0,0.,24.0,0.,24.0
1979-07-16 02:07:44.090 ,4,0,0.,24.0,0.,24.0,0.,24.0,0.,24.0
1979-07-16 02:08:08.090 ,3,1,0.,24.0,0.,24.0,0.,24.0,0.,24.0
1979-07-16 02:08:32.090 ,3,0,0.,24.0,0.,24.0,0.,24.0,0.,24.0
1979-07-16 02:08:56.090 ,2,1,0.,24.0,0.,24.0,0.,24.0,0.,24.0
1979-07-16 02:09:20.090 ,2,0,0.,24.0,0.,24.0,0.,24.0,0.,24.0
1979-07-16 02:09:44.090 ,1,1,0.,24.0,0.,24.0,0.,24.0,0.,24.0
1979-07-16 02:10:08.090 ,1,0,0.,24.0,0.,24.0,0.,24.0,0.,24.0
1979-07-16 02:10:32.090 ,0,1,0.,24.0,0.,24.0,0.,24.0,0.,24.0
1979-07-16 02:10:56.090 ,0,0,0.,24.0,0.,24.0,0.,24.0,0.,24.0
1979-07-16 02:11:20.090 ,0,1,0.,24.0,0.,24.0,0.,24.0,0.,24.0
1979-07-16 02:11:44.090 ,0,0,0.,24.0,0.,24.0,0.,24.0,0.,24.0
1979-07-16 02:12:08.090 ,1,1,0.,24.0,0.,24.0,0.,24.0,0.,24.0
1979-07-16 02:12:32.090 ,1,0,0.,24.0,0.,24.0,0.,24.0,0.,24.0
1979-07-16 02:12:56.090 ,2,1,0.,24.0,0.,24.0,0.,24.0,0.,24.0
1979-07-16 02:13:20.090 ,2,0,0.,24.0,0.,24.0,0.,24.0,0.,24.0
1979-07-16 02:13:44.090 ,3,1,0.,24.0,0.,24.0,0.,24.0,0.,24.0
1979-07-16 02:14:08.090 ,3,0,0.,24.0,0.,24.0,0.,24.0,0.,24.0
1979-07-16 02:14:32.090 ,4,1,0.,24.0,0.,24.0,0.,24.0,0.,24.0
1979-07-16 02:14:56.090 ,4,0,0.,24.0,0.,24.0,0.,24.0,0.,24.0
1979-07-16 02:15:20.090 ,5,1,0.,24.0,0.,24.0,0.,24.0,0.,24.0
1979-07-16 02:15:44.090 ,5,0,0.,24.0,0.,24.0,0.,24.0,0.,24.0
1979-07-16 02:16:08.090 ,6,1,0.,24.0,0.,24.0,0.,24.0,0.,24.0
1979-07-16 02:16:32.090 ,6,0,0.,24.0,0.,24.0,0.,24.0,0.,24.0
1979-07-16 02:16:56.090 ,7,1,0.,24.0,0.,24.0,0.,24.0,0.,24.0
1979-07-16 02:17:20.090 ,7,0,0.,24.0,0.,24.0,0.,24.0,0.,24.0
1979-07-16 02:17:44.090 ,7,1,0.,24.0,0.,24.0,0.,24.0,0.,24.0
1979-07-16 02:18:08.090 ,7,0,0.,24.0,0.,24.0,0.,24.0,0.,24.0
1979-07-16 02:18:32.090 ,6,1,0.,24.0,0.,24.0,0.,24.0,0.,24.0
1979-07-16 02:18:56.090 ,6,0,0.,24.0,0.,24.0,0.,24.0,0.,24.0
1979-07-16 02:20:08.090 ,0,0,0.,24.0,0.,24.0,0.,24.0,0.,24.0
1979-07-16 02:20:32.090 ,0,0,0.,24.0,0.,24.0,0.,24.0,0.,24.0
1979-07-16 02:20:56.090 ,3,1,0.,24.0,0.,24.0,0.,24.0,0.,24.0
1979-07-16 02:21:20.090 ,3,0,0.,24.0,0.,24.0,0.,24.0,0.,24.0
1979-07-16 02:21:44.090 ,2,1,0.,24.0,0.,24.0,0.,24.0,0.,24.0
1979-07-16 02:22:08.090 ,2,0,0.,24.0,0.,24.0,0.,24.0,0.,24.0
1979-07-16 02:22:32.090 ,1,1,0.,24.0,0.,24.0,0.,24.0,0.,24.0
1979-07-16 02:22:56.090 ,1,0,0.,24.0,0.,24.0,0.,24.0,0.,24.0
1979-07-16 02:23:20.090 ,0,1,0.,24.0,0.,24.0,0.,24.0,0.,24.0
1979-07-16 02:23:44.090 ,0,0,0.,24.0,0.,24.0,0.,24.0,0.,24.0
1979-07-16 02:24:08.090 ,0,1,0.,24.0,0.,24.0,0.,24.0,0.,24.0
1979-07-16 02:24:32.090 ,0,0,0.,24.0,0.,24.0,0.,24.0,0.,24.0
1979-07-16 02:24:56.090 ,1,1,0.,24.0,0.,24.0,0.,24.0,0.,24.0
1979-07-16 02:25:20.090 ,1,0,0.,24.0,0.,24.0,0.,24.0,0.,24.0
1979-07-16 02:25:44.090 ,2,1,0.,24.0,0.,24.0,0.,24.0,0.,24.0
1979-07-16 02:26:08.090 ,2,0,0.,24.0,0.,24.0,0.,24.0,0.,24.0
1979-07-16 02:26:32.090 ,3,1,0.,24.0,0.,24.0,0.,24.0,0.,24.0
1979-07-16 02:26:56.090 ,3,0,0.,24.0,0.,24.0,0.,24.0,0.,24.0
1979-07-16 02:27:20.090 ,4,1,0.,24.0,0.,24.0,0.,24.0,0.,24.0
1979-07-16 02:27:44.090 ,4,0,0.,24.0,0.,24.0,0.,24.0,0.,24.0